{"data":{"norad_id":69382,"epoch":"2026-09-20T03:46:04.242720Z","epoch_age_seconds":64545,"freshness":"FRESH","line1":"1 69382U 26124A   26263.15699355  .00000096  00000+0  13013-3 0  9990","line2":"2 69382  89.0070 352.0575 0001947 120.8974 239.2369 13.51022194 14864","mean_motion":13.51022194,"eccentricity":0.0001947,"inclination_deg":89.007,"raan_deg":352.0575,"arg_perigee_deg":120.8974,"mean_anomaly_deg":239.2369,"bstar":0.00013013,"rev_number":1486,"period_min":106.58596182914,"perigee_km":1067.0501705076,"apogee_km":1069.9498909674,"semimajor_km":7446.6370307375,"source":"CELESTRAK","updated_at":"2026-09-20T09:00:24.857631Z"}}